Time,TemperatureF,DewpointF,PressureIn,WindDirection,WindDirectionDegrees,WindSpeedMPH,WindSpeedGustMPH,Humidity,HourlyPrecipIn,Conditions,Clouds,dailyrainin,SoftwareType,DateUTC
2013-02-17 00:00:00,34.7,33.0,29.64,SSE,157,12.6,19.6,93,0.00,,,0.11,Rainwise IP-100,2013-02-17 05:00:00,
2013-02-17 00:05:00,34.6,33.0,29.63,East,90,1.4,24.7,93,0.00,,,0.00,Rainwise IP-100,2013-02-17 05:05:00,
2013-02-17 00:10:00,34.4,33.0,29.62,SSW,202,7.2,20.1,93,0.00,,,0.00,Rainwise IP-100,2013-02-17 05:10:00,
2013-02-17 00:15:00,34.2,33.0,29.63,SE,135,0.0,21.0,94,0.00,,,0.00,Rainwise IP-100,2013-02-17 05:15:00,
2013-02-17 00:20:00,34.2,33.0,29.63,East,90,10.3,18.0,94,0.00,,,0.00,Rainwise IP-100,2013-02-17 05:20:00,
2013-02-17 00:25:00,34.2,33.0,29.65,ESE,112,14.2,16.8,93,0.00,,,0.00,Rainwise IP-100,2013-02-17 05:25:00,
2013-02-17 00:30:00,34.2,33.0,29.65,WNW,292,1.2,14.2,93,0.00,,,0.00,Rainwise IP-100,2013-02-17 05:30:00,
2013-02-17 00:35:00,34.3,33.0,29.65,SSW,202,7.2,16.8,93,0.00,,,0.00,Rainwise IP-100,2013-02-17 05:35:00,
2013-02-17 00:40:00,34.4,33.0,29.64,SW,225,4.0,14.2,93,0.00,,,0.00,Rainwise IP-100,2013-02-17 05:40:00,
2013-02-17 00:45:00,34.5,32.0,29.64,SSE,157,13.5,15.2,92,0.00,,,0.00,Rainwise IP-100,2013-02-17 05:45:00,
2013-02-17 00:50:00,34.5,32.0,29.63,WNW,292,2.3,14.7,92,0.00,,,0.00,Rainwise IP-100,2013-02-17 05:50:00,
2013-02-17 00:55:00,34.4,33.0,29.62,SSE,157,7.0,14.9,93,0.00,,,0.00,Rainwise IP-100,2013-02-17 05:55:00,
2013-02-17 01:00:00,34.3,32.0,29.62,SSE,157,5.8,15.4,92,0.00,,,0.00,Rainwise IP-100,2013-02-17 06:00:00,
2013-02-17 01:05:00,34.4,32.0,29.62,SSE,157,2.3,19.4,92,0.00,,,0.00,Rainwise IP-100,2013-02-17 06:05:00,
2013-02-17 01:10:00,34.6,32.0,29.61,SSE,157,10.5,25.6,91,0.00,,,0.00,Rainwise IP-100,2013-02-17 06:10:00,
2013-02-17 01:15:00,34.5,32.0,29.61,SSW,202,4.0,18.7,90,0.00,,,0.00,Rainwise IP-100,2013-02-17 06:15:00,
2013-02-17 01:20:00,34.4,32.0,29.61,SE,135,1.4,17.0,91,0.00,,,0.00,Rainwise IP-100,2013-02-17 06:20:00,
2013-02-17 01:25:00,34.3,32.0,29.60,SSE,157,6.3,18.7,91,0.00,,,0.00,Rainwise IP-100,2013-02-17 06:25:00,
2013-02-17 01:30:00,34.1,32.0,29.60,SSE,157,4.9,16.1,91,0.00,,,0.00,Rainwise IP-100,2013-02-17 06:30:00,
2013-02-17 01:35:00,33.9,32.0,29.59,SSW,202,13.5,15.9,92,0.00,,,0.00,Rainwise IP-100,2013-02-17 06:35:00,
2013-02-17 01:40:00,33.6,33.0,29.59,ENE,67,6.1,21.9,93,0.00,,,0.00,Rainwise IP-100,2013-02-17 06:40:00,
2013-02-17 01:45:00,33.3,32.0,29.59,ESE,112,18.4,20.5,94,0.00,,,0.00,Rainwise IP-100,2013-02-17 06:45:00,
2013-02-17 01:50:00,33.0,32.0,29.59,SE,135,6.3,22.9,94,0.00,,,0.00,Rainwise IP-100,2013-02-17 06:50:00,
2013-02-17 01:55:00,32.9,32.0,29.58,South,180,8.4,18.4,95,0.00,,,0.00,Rainwise IP-100,2013-02-17 06:55:00,
2013-02-17 02:00:00,32.8,32.0,29.58,SSE,157,4.7,18.9,95,0.00,,,0.00,Rainwise IP-100,2013-02-17 07:00:00,
2013-02-17 02:01:00,32.8,32.0,29.58,SE,135,4.2,18.0,95,0.00,,,0.00,Rainwise IP-100,2013-02-17 07:01:00,
2013-02-17 02:06:00,32.8,32.0,29.57,East,90,4.4,18.2,95,0.00,,,0.00,Rainwise IP-100,2013-02-17 07:06:00,
2013-02-17 02:11:00,32.8,32.0,29.56,East,90,13.3,21.9,94,0.00,,,0.00,Rainwise IP-100,2013-02-17 07:11:00,
2013-02-17 02:16:00,32.7,32.0,29.56,East,90,6.5,20.8,94,0.00,,,0.00,Rainwise IP-100,2013-02-17 07:16:00,
2013-02-17 02:21:00,32.7,32.0,29.56,ESE,112,7.9,20.5,94,0.00,,,0.00,Rainwise IP-100,2013-02-17 07:21:00,
2013-02-17 02:26:00,32.8,32.0,29.55,ESE,112,12.6,24.5,93,0.00,,,0.00,Rainwise IP-100,2013-02-17 07:26:00,
2013-02-17 02:31:00,32.9,31.0,29.54,East,90,19.1,26.8,92,0.00,,,0.00,Rainwise IP-100,2013-02-17 07:31:00,
2013-02-17 02:36:00,32.9,31.0,29.54,South,180,4.4,23.6,92,0.00,,,0.00,Rainwise IP-100,2013-02-17 07:36:00,
2013-02-17 02:37:00,32.9,31.0,29.54,SSE,157,10.0,23.3,92,0.00,,,0.00,Rainwise IP-100,2013-02-17 07:37:00,
2013-02-17 02:42:00,32.9,31.0,29.53,ESE,112,10.3,27.3,91,0.00,,,0.00,Rainwise IP-100,2013-02-17 07:42:00,
2013-02-17 02:47:00,32.9,31.0,29.53,SSE,157,15.4,29.1,91,0.00,,,0.00,Rainwise IP-100,2013-02-17 07:47:00,
2013-02-17 02:52:00,32.8,31.0,29.53,SSW,202,4.7,25.9,90,0.00,,,0.00,Rainwise IP-100,2013-02-17 07:52:00,
2013-02-17 02:57:00,32.7,31.0,29.53,ESE,112,7.9,22.6,90,0.00,,,0.00,Rainwise IP-100,2013-02-17 07:57:00,
2013-02-17 03:02:00,32.6,31.0,29.54,ESE,112,11.7,27.0,91,0.00,,,0.00,Rainwise IP-100,2013-02-17 08:02:00,
2013-02-17 03:07:00,32.5,31.0,29.52,East,90,7.5,25.6,91,0.00,,,0.00,Rainwise IP-100,2013-02-17 08:07:00,
2013-02-17 03:12:00,32.4,29.0,29.52,NE,45,8.9,20.3,91,0.00,,,0.00,Rainwise IP-100,2013-02-17 08:12:00,
2013-02-17 03:17:00,32.4,29.0,29.52,ESE,112,16.8,21.5,91,0.00,,,0.00,Rainwise IP-100,2013-02-17 08:17:00,
2013-02-17 03:22:00,32.3,29.0,29.50,ESE,112,11.2,29.4,91,0.00,,,0.00,Rainwise IP-100,2013-02-17 08:22:00,
2013-02-17 03:27:00,32.1,29.0,29.49,SSE,157,7.0,27.7,91,0.00,,,0.00,Rainwise IP-100,2013-02-17 08:27:00,
2013-02-17 03:32:00,31.9,29.0,29.51,ESE,112,20.5,26.6,91,0.00,,,0.00,Rainwise IP-100,2013-02-17 08:32:00,
2013-02-17 03:37:00,31.6,29.0,29.49,East,90,18.2,25.4,91,0.00,,,0.00,Rainwise IP-100,2013-02-17 08:37:00,
2013-02-17 03:42:00,31.4,29.0,29.48,ESE,112,24.5,25.9,92,0.00,,,0.00,Rainwise IP-100,2013-02-17 08:42:00,
2013-02-17 03:47:00,31.2,29.0,29.47,ESE,112,8.6,30.1,92,0.00,,,0.00,Rainwise IP-100,2013-02-17 08:47:00,
2013-02-17 03:52:00,31.1,29.0,29.47,East,90,12.1,26.8,93,0.00,,,0.00,Rainwise IP-100,2013-02-17 08:52:00,
2013-02-17 03:57:00,31.1,29.0,29.47,ESE,112,7.7,21.7,93,0.00,,,0.00,Rainwise IP-100,2013-02-17 08:57:00,
2013-02-17 04:02:00,31.0,29.0,29.46,ESE,112,18.2,31.0,93,0.00,,,0.00,Rainwise IP-100,2013-02-17 09:02:00,
2013-02-17 04:07:00,30.9,29.0,29.46,SSE,157,13.3,23.6,93,0.00,,,0.00,Rainwise IP-100,2013-02-17 09:07:00,
2013-02-17 04:12:00,30.7,29.0,29.46,ENE,67,6.3,25.4,94,0.00,,,0.00,Rainwise IP-100,2013-02-17 09:12:00,
2013-02-17 04:17:00,30.5,29.0,29.45,SE,135,16.1,33.1,94,0.06,,,0.01,Rainwise IP-100,2013-02-17 09:17:00,
2013-02-17 04:22:00,30.2,29.0,29.46,ESE,112,16.6,29.4,95,0.06,,,0.01,Rainwise IP-100,2013-02-17 09:22:00,
2013-02-17 04:27:00,30.0,29.0,29.46,ESE,112,15.6,30.1,95,0.36,,,0.07,Rainwise IP-100,2013-02-17 09:27:00,
2013-02-17 04:32:00,29.8,29.0,29.44,SSE,157,18.4,26.1,95,0.36,,,0.07,Rainwise IP-100,2013-02-17 09:32:00,
2013-02-17 04:37:00,29.5,29.0,29.46,East,90,15.9,31.0,96,0.00,,,0.07,Rainwise IP-100,2013-02-17 09:37:00,
2013-02-17 04:42:00,29.2,28.0,29.46,ESE,112,10.7,24.7,96,0.00,,,0.07,Rainwise IP-100,2013-02-17 09:42:00,
2013-02-17 04:47:00,28.8,29.0,29.43,ESE,112,16.1,28.0,97,0.00,,,0.07,Rainwise IP-100,2013-02-17 09:47:00,
2013-02-17 04:52:00,28.6,29.0,29.46,ESE,112,17.3,32.6,97,0.00,,,0.07,Rainwise IP-100,2013-02-17 09:52:00,
2013-02-17 04:57:00,28.4,28.0,29.45,ESE,112,14.5,28.7,97,0.00,,,0.07,Rainwise IP-100,2013-02-17 09:57:00,
2013-02-17 05:02:00,28.1,28.0,29.45,East,90,12.4,20.3,97,0.00,,,0.07,Rainwise IP-100,2013-02-17 10:02:00,
2013-02-17 05:07:00,27.9,26.0,29.42,ESE,112,18.2,31.9,96,0.00,,,0.08,Rainwise IP-100,2013-02-17 10:07:00,
2013-02-17 05:12:00,27.8,26.0,29.41,South,180,3.5,35.7,96,0.06,,,0.08,Rainwise IP-100,2013-02-17 10:12:00,
2013-02-17 05:17:00,27.7,26.0,29.43,SSW,202,5.1,26.1,96,0.06,,,0.08,Rainwise IP-100,2013-02-17 10:17:00,
2013-02-17 05:22:00,27.7,26.0,29.38,ESE,112,20.8,28.9,96,0.00,,,0.08,Rainwise IP-100,2013-02-17 10:22:00,
2013-02-17 05:27:00,27.5,26.0,29.40,ESE,112,15.9,35.9,96,0.00,,,0.08,Rainwise IP-100,2013-02-17 10:27:00,
2013-02-17 05:32:00,27.4,26.0,29.41,ESE,112,16.3,24.2,96,0.00,,,0.08,Rainwise IP-100,2013-02-17 10:32:00,
2013-02-17 05:37:00,27.2,26.0,29.41,East,90,13.5,30.1,96,0.00,,,0.08,Rainwise IP-100,2013-02-17 10:37:00,
2013-02-17 05:42:00,27.0,26.0,29.40,ESE,112,15.4,31.0,96,0.00,,,0.08,Rainwise IP-100,2013-02-17 10:42:00,
2013-02-17 05:47:00,26.8,26.0,29.39,SE,135,10.0,33.3,95,0.00,,,0.08,Rainwise IP-100,2013-02-17 10:47:00,
2013-02-17 05:52:00,26.6,26.0,29.41,SE,135,26.8,33.3,95,0.00,,,0.08,Rainwise IP-100,2013-02-17 10:52:00,
2013-02-17 05:57:00,26.6,26.0,29.41,SE,135,7.0,29.4,95,0.00,,,0.08,Rainwise IP-100,2013-02-17 10:57:00,
2013-02-17 06:02:00,26.4,24.0,29.39,ESE,112,21.2,26.1,95,0.00,,,0.08,Rainwise IP-100,2013-02-17 11:02:00,
2013-02-17 06:07:00,26.1,24.0,29.41,ESE,112,13.8,27.7,95,0.00,,,0.08,Rainwise IP-100,2013-02-17 11:07:00,
2013-02-17 06:12:00,25.9,24.0,29.40,East,90,18.2,31.5,95,0.00,,,0.08,Rainwise IP-100,2013-02-17 11:12:00,
2013-02-17 06:17:00,25.9,24.0,29.39,ESE,112,9.8,27.7,95,0.00,,,0.08,Rainwise IP-100,2013-02-17 11:17:00,
2013-02-17 06:22:00,25.9,24.0,29.39,ESE,112,20.1,27.5,95,0.00,,,0.08,Rainwise IP-100,2013-02-17 11:22:00,
2013-02-17 06:27:00,25.8,24.0,29.39,ESE,112,13.8,28.7,94,0.00,,,0.08,Rainwise IP-100,2013-02-17 11:27:00,
2013-02-17 06:32:00,25.6,24.0,29.37,ESE,112,26.8,29.4,94,0.00,,,0.08,Rainwise IP-100,2013-02-17 11:32:00,
2013-02-17 06:37:00,25.4,24.0,29.38,ESE,112,13.8,33.1,94,0.00,,,0.10,Rainwise IP-100,2013-02-17 11:37:00,
2013-02-17 06:42:00,25.3,24.0,29.37,ESE,112,17.3,28.2,94,0.12,,,0.10,Rainwise IP-100,2013-02-17 11:42:00,
2013-02-17 06:47:00,25.2,24.0,29.38,East,90,5.1,25.4,94,0.12,,,0.10,Rainwise IP-100,2013-02-17 11:47:00,
2013-02-17 06:52:00,24.8,24.0,29.38,East,90,12.6,24.0,94,0.00,,,0.10,Rainwise IP-100,2013-02-17 11:52:00,
2013-02-17 06:57:00,24.4,23.0,29.36,East,90,13.8,23.1,94,0.00,,,0.10,Rainwise IP-100,2013-02-17 11:57:00,
2013-02-17 07:02:00,24.0,23.0,29.37,East,90,21.7,24.5,94,0.00,,,0.10,Rainwise IP-100,2013-02-17 12:02:00,
2013-02-17 07:07:00,23.8,23.0,29.35,ESE,112,13.1,28.2,94,0.00,,,0.10,Rainwise IP-100,2013-02-17 12:07:00,
2013-02-17 07:12:00,23.7,23.0,29.37,ESE,112,14.9,28.2,94,0.00,,,0.10,Rainwise IP-100,2013-02-17 12:12:00,
2013-02-17 07:17:00,23.6,23.0,29.35,ESE,112,19.1,25.6,94,0.00,,,0.10,Rainwise IP-100,2013-02-17 12:17:00,
2013-02-17 07:22:00,23.4,21.0,29.33,ESE,112,24.5,29.6,94,0.00,,,0.10,Rainwise IP-100,2013-02-17 12:22:00,
2013-02-17 07:27:00,23.3,21.0,29.35,ESE,112,15.4,35.0,93,0.06,,,0.11,Rainwise IP-100,2013-02-17 12:27:00,
2013-02-17 07:32:00,23.3,21.0,29.36,ESE,112,14.5,33.1,93,0.06,,,0.11,Rainwise IP-100,2013-02-17 12:32:00,
2013-02-17 07:37:00,23.2,21.0,29.33,ESE,112,15.2,27.3,93,0.00,,,0.11,Rainwise IP-100,2013-02-17 12:37:00,
2013-02-17 07:42:00,23.1,21.0,29.34,East,90,17.3,42.7,92,0.00,,,0.11,Rainwise IP-100,2013-02-17 12:42:00,
2013-02-17 07:47:00,23.1,21.0,29.34,East,90,14.9,25.4,92,0.00,,,0.11,Rainwise IP-100,2013-02-17 12:47:00,
2013-02-17 07:52:00,23.0,21.0,29.34,ESE,112,15.2,26.3,92,0.00,,,0.11,Rainwise IP-100,2013-02-17 12:52:00,
2013-02-17 07:57:00,22.9,21.0,29.34,ESE,112,11.2,29.1,93,0.00,,,0.11,Rainwise IP-100,2013-02-17 12:57:00,
2013-02-17 08:02:00,22.8,21.0,29.34,East,90,24.9,28.9,93,0.00,,,0.11,Rainwise IP-100,2013-02-17 13:02:00,
2013-02-17 08:07:00,22.8,21.0,29.34,ESE,112,13.3,32.9,93,0.00,,,0.11,Rainwise IP-100,2013-02-17 13:07:00,
2013-02-17 08:12:00,22.7,21.0,29.32,ENE,67,19.6,29.6,93,0.00,,,0.11,Rainwise IP-100,2013-02-17 13:12:00,
2013-02-17 08:17:00,22.7,21.0,29.33,SE,135,9.1,40.6,93,0.00,,,0.11,Rainwise IP-100,2013-02-17 13:17:00,
2013-02-17 08:22:00,22.5,21.0,29.32,ESE,112,29.1,29.1,93,0.00,,,0.11,Rainwise IP-100,2013-02-17 13:22:00,
2013-02-17 08:27:00,22.4,21.0,29.33,ESE,112,15.6,33.3,94,0.00,,,0.11,Rainwise IP-100,2013-02-17 13:27:00,
2013-02-17 08:32:00,22.2,21.0,29.32,NNE,22,4.4,27.0,94,0.00,,,0.11,Rainwise IP-100,2013-02-17 13:32:00,
2013-02-17 08:37:00,22.1,21.0,29.32,East,90,11.4,22.6,95,0.00,,,0.11,Rainwise IP-100,2013-02-17 13:37:00,
2013-02-17 08:42:00,22.0,21.0,29.31,East,90,16.8,26.3,95,0.00,,,0.11,Rainwise IP-100,2013-02-17 13:42:00,
2013-02-17 08:47:00,21.9,23.0,29.32,SE,135,13.5,32.4,96,0.00,,,0.11,Rainwise IP-100,2013-02-17 13:47:00,
2013-02-17 08:52:00,21.8,23.0,29.31,ENE,67,15.6,29.1,96,0.00,,,0.11,Rainwise IP-100,2013-02-17 13:52:00,
2013-02-17 08:57:00,21.8,23.0,29.32,East,90,14.5,31.9,96,0.00,,,0.11,Rainwise IP-100,2013-02-17 13:57:00,
2013-02-17 09:02:00,21.7,23.0,29.32,ENE,67,20.5,22.6,97,0.00,,,0.11,Rainwise IP-100,2013-02-17 14:02:00,
2013-02-17 09:07:00,21.6,23.0,29.32,ESE,112,23.8,25.9,97,0.00,,,0.11,Rainwise IP-100,2013-02-17 14:07:00,
2013-02-17 09:12:00,21.4,21.0,29.31,East,90,18.4,34.5,97,0.00,,,0.11,Rainwise IP-100,2013-02-17 14:12:00,
2013-02-17 09:17:00,21.3,21.0,29.31,ESE,112,8.9,26.6,97,0.00,,,0.11,Rainwise IP-100,2013-02-17 14:17:00,
2013-02-17 09:22:00,21.2,21.0,29.30,ESE,112,20.1,28.9,97,0.00,,,0.11,Rainwise IP-100,2013-02-17 14:22:00,
2013-02-17 09:27:00,21.1,21.0,29.32,SE,135,9.1,31.9,97,0.12,,,0.13,Rainwise IP-100,2013-02-17 14:27:00,
2013-02-17 09:32:00,20.9,21.0,29.32,East,90,18.0,32.9,97,0.12,,,0.13,Rainwise IP-100,2013-02-17 14:32:00,
2013-02-17 09:37:00,20.7,21.0,29.32,ESE,112,18.2,30.8,97,0.00,,,0.13,Rainwise IP-100,2013-02-17 14:37:00,
2013-02-17 09:42:00,20.7,21.0,29.32,East,90,7.5,28.4,97,0.00,,,0.13,Rainwise IP-100,2013-02-17 14:42:00,
2013-02-17 09:47:00,20.8,21.0,29.32,East,90,11.2,26.6,97,0.00,,,0.13,Rainwise IP-100,2013-02-17 14:47:00,
2013-02-17 09:52:00,20.9,21.0,29.32,ESE,112,12.1,31.5,97,0.00,,,0.13,Rainwise IP-100,2013-02-17 14:52:00,
2013-02-17 09:57:00,20.9,21.0,29.33,East,90,18.2,20.5,97,0.00,,,0.13,Rainwise IP-100,2013-02-17 14:57:00,
2013-02-17 10:02:00,20.8,21.0,29.33,ENE,67,3.0,28.7,97,0.06,,,0.14,Rainwise IP-100,2013-02-17 15:02:00,
2013-02-17 10:07:00,20.8,21.0,29.32,East,90,15.2,21.0,97,0.06,,,0.14,Rainwise IP-100,2013-02-17 15:07:00,
2013-02-17 10:12:00,20.8,21.0,29.33,East,90,14.7,25.6,97,0.00,,,0.14,Rainwise IP-100,2013-02-17 15:12:00,
2013-02-17 10:17:00,20.7,21.0,29.33,East,90,11.7,24.0,97,0.00,,,0.14,Rainwise IP-100,2013-02-17 15:17:00,
2013-02-17 10:22:00,20.7,21.0,29.32,ESE,112,2.3,27.7,97,0.00,,,0.14,Rainwise IP-100,2013-02-17 15:22:00,
2013-02-17 10:27:00,20.8,21.0,29.34,East,90,12.6,28.2,97,0.00,,,0.14,Rainwise IP-100,2013-02-17 15:27:00,
2013-02-17 10:32:00,20.7,21.0,29.33,East,90,18.4,28.7,97,0.00,,,0.14,Rainwise IP-100,2013-02-17 15:32:00,
2013-02-17 10:37:00,20.7,21.0,29.34,SSE,157,3.0,26.6,97,0.00,,,0.14,Rainwise IP-100,2013-02-17 15:37:00,
2013-02-17 10:42:00,20.7,21.0,29.34,NNE,22,3.7,26.1,97,0.00,,,0.14,Rainwise IP-100,2013-02-17 15:42:00,
2013-02-17 10:47:00,20.7,21.0,29.34,SSE,157,4.0,27.0,97,0.00,,,0.14,Rainwise IP-100,2013-02-17 15:47:00,
2013-02-17 10:52:00,20.7,21.0,29.34,East,90,14.0,25.9,97,0.00,,,0.14,Rainwise IP-100,2013-02-17 15:52:00,
2013-02-17 10:57:00,20.7,21.0,29.34,West,270,5.6,23.8,97,0.00,,,0.14,Rainwise IP-100,2013-02-17 15:57:00,
2013-02-17 11:02:00,20.8,21.0,29.34,NNE,22,5.1,20.8,97,0.00,,,0.14,Rainwise IP-100,2013-02-17 16:02:00,
2013-02-17 11:07:00,20.8,21.0,29.34,ENE,67,13.3,24.9,97,0.00,,,0.14,Rainwise IP-100,2013-02-17 16:07:00,
2013-02-17 11:12:00,20.7,21.0,29.33,East,90,13.5,24.5,97,0.00,,,0.14,Rainwise IP-100,2013-02-17 16:12:00,
2013-02-17 11:17:00,20.7,21.0,29.35,ESE,112,8.4,21.9,97,0.00,,,0.14,Rainwise IP-100,2013-02-17 16:17:00,
2013-02-17 11:23:00,20.7,21.0,29.34,ENE,67,10.5,18.7,97,0.00,,,0.14,Rainwise IP-100,2013-02-17 16:23:00,
2013-02-17 11:28:00,20.6,21.0,29.35,ENE,67,4.7,22.2,97,0.00,,,0.14,Rainwise IP-100,2013-02-17 16:28:00,
2013-02-17 11:33:00,20.6,21.0,29.35,ENE,67,12.1,23.1,97,0.00,,,0.14,Rainwise IP-100,2013-02-17 16:33:00,
2013-02-17 11:38:00,20.5,21.0,29.34,East,90,14.7,30.1,97,0.00,,,0.14,Rainwise IP-100,2013-02-17 16:38:00,
2013-02-17 11:43:00,20.5,21.0,29.34,East,90,26.8,26.8,97,0.00,,,0.14,Rainwise IP-100,2013-02-17 16:43:00,
2013-02-17 11:48:00,20.5,21.0,29.35,East,90,19.8,31.5,97,0.00,,,0.14,Rainwise IP-100,2013-02-17 16:48:00,
2013-02-17 11:53:00,20.4,21.0,29.34,SSW,202,7.0,28.7,97,0.00,,,0.14,Rainwise IP-100,2013-02-17 16:53:00,
2013-02-17 11:58:00,20.4,21.0,29.34,ESE,112,10.5,33.3,97,0.00,,,0.14,Rainwise IP-100,2013-02-17 16:58:00,
2013-02-17 12:03:00,20.5,21.0,29.35,ENE,67,20.3,26.1,97,0.00,,,0.14,Rainwise IP-100,2013-02-17 17:03:00,
2013-02-17 12:08:00,20.6,21.0,29.35,SSE,157,3.0,27.3,97,0.00,,,0.14,Rainwise IP-100,2013-02-17 17:08:00,
2013-02-17 12:13:00,20.7,21.0,29.35,NNE,22,6.3,34.3,97,0.06,,,0.15,Rainwise IP-100,2013-02-17 17:13:00,
2013-02-17 12:18:00,20.8,21.0,29.35,East,90,16.8,26.8,97,0.06,,,0.15,Rainwise IP-100,2013-02-17 17:18:00,
2013-02-17 12:23:00,21.0,21.0,29.34,East,90,20.5,27.7,97,0.00,,,0.15,Rainwise IP-100,2013-02-17 17:23:00,
2013-02-17 12:28:00,21.0,21.0,29.36,East,90,12.8,28.2,97,0.00,,,0.15,Rainwise IP-100,2013-02-17 17:28:00,
2013-02-17 12:33:00,21.0,21.0,29.34,East,90,21.9,35.2,97,0.00,,,0.15,Rainwise IP-100,2013-02-17 17:33:00,
2013-02-17 12:38:00,21.2,21.0,29.36,East,90,18.7,23.6,97,0.00,,,0.15,Rainwise IP-100,2013-02-17 17:38:00,
2013-02-17 12:43:00,21.3,21.0,29.35,ESE,112,7.2,35.7,97,0.00,,,0.15,Rainwise IP-100,2013-02-17 17:43:00,
2013-02-17 12:48:00,21.3,21.0,29.36,ENE,67,4.9,28.4,97,0.00,,,0.15,Rainwise IP-100,2013-02-17 17:48:00,
2013-02-17 12:53:00,21.3,21.0,29.37,East,90,2.6,22.6,97,0.00,,,0.15,Rainwise IP-100,2013-02-17 17:53:00,
2013-02-17 12:58:00,21.4,21.0,29.36,East,90,7.0,28.2,97,0.00,,,0.15,Rainwise IP-100,2013-02-17 17:58:00,
2013-02-17 13:03:00,21.5,23.0,29.36,ENE,67,15.6,24.2,97,0.00,,,0.15,Rainwise IP-100,2013-02-17 18:03:00,
2013-02-17 13:08:00,21.6,23.0,29.37,East,90,5.6,23.8,97,0.00,,,0.15,Rainwise IP-100,2013-02-17 18:08:00,
2013-02-17 13:13:00,21.7,23.0,29.35,East,90,14.5,31.0,96,0.00,,,0.15,Rainwise IP-100,2013-02-17 18:13:00,
2013-02-17 13:18:00,21.7,23.0,29.37,East,90,10.7,26.8,96,0.00,,,0.15,Rainwise IP-100,2013-02-17 18:18:00,
2013-02-17 13:23:00,21.8,23.0,29.38,East,90,17.7,22.9,96,0.00,,,0.15,Rainwise IP-100,2013-02-17 18:23:00,
2013-02-17 13:28:00,21.9,23.0,29.39,East,90,7.5,23.8,96,0.00,,,0.15,Rainwise IP-100,2013-02-17 18:28:00,
2013-02-17 13:33:00,22.0,21.0,29.37,ENE,67,8.9,24.7,95,0.00,,,0.15,Rainwise IP-100,2013-02-17 18:33:00,
2013-02-17 13:38:00,22.0,21.0,29.36,ENE,67,5.4,24.5,95,0.00,,,0.15,Rainwise IP-100,2013-02-17 18:38:00,
2013-02-17 13:43:00,22.1,21.0,29.37,East,90,19.1,28.4,94,0.00,,,0.15,Rainwise IP-100,2013-02-17 18:43:00,
2013-02-17 13:48:00,22.1,21.0,29.38,East,90,14.7,23.1,94,0.00,,,0.15,Rainwise IP-100,2013-02-17 18:48:00,
2013-02-17 13:53:00,22.1,21.0,29.39,East,90,18.0,27.7,93,0.00,,,0.15,Rainwise IP-100,2013-02-17 18:53:00,
2013-02-17 13:58:00,22.2,21.0,29.38,East,90,20.8,23.8,92,0.00,,,0.15,Rainwise IP-100,2013-02-17 18:58:00,
2013-02-17 14:03:00,22.5,21.0,29.39,East,90,9.3,25.6,90,0.00,,,0.15,Rainwise IP-100,2013-02-17 19:03:00,
2013-02-17 14:08:00,22.8,21.0,29.39,East,90,7.5,24.9,89,0.00,,,0.15,Rainwise IP-100,2013-02-17 19:08:00,
2013-02-17 14:13:00,23.0,18.0,29.39,East,90,13.3,25.9,87,0.00,,,0.15,Rainwise IP-100,2013-02-17 19:13:00,
2013-02-17 14:18:00,23.2,18.0,29.39,East,90,15.6,24.7,84,0.00,,,0.15,Rainwise IP-100,2013-02-17 19:18:00,
2013-02-17 14:23:00,23.3,18.0,29.38,East,90,14.0,32.9,82,0.00,,,0.15,Rainwise IP-100,2013-02-17 19:23:00,
2013-02-17 14:28:00,23.3,16.0,29.40,ESE,112,12.4,34.7,79,0.12,,,0.17,Rainwise IP-100,2013-02-17 19:28:00,
2013-02-17 14:33:00,23.3,16.0,29.40,ESE,112,11.7,29.1,77,0.12,,,0.17,Rainwise IP-100,2013-02-17 19:33:00,
2013-02-17 14:38:00,23.4,16.0,29.40,East,90,17.7,40.3,76,0.00,,,0.17,Rainwise IP-100,2013-02-17 19:38:00,
2013-02-17 14:43:00,23.5,18.0,29.41,ESE,112,3.5,29.1,75,0.00,,,0.17,Rainwise IP-100,2013-02-17 19:43:00,
2013-02-17 14:48:00,23.4,16.0,29.40,SE,135,13.1,26.1,75,0.00,,,0.17,Rainwise IP-100,2013-02-17 19:48:00,
2013-02-17 14:53:00,23.2,16.0,29.41,SE,135,15.9,30.3,75,0.00,,,0.17,Rainwise IP-100,2013-02-17 19:53:00,
2013-02-17 14:58:00,23.0,16.0,29.41,NNE,22,6.8,25.9,75,0.00,,,0.17,Rainwise IP-100,2013-02-17 19:58:00,
2013-02-17 15:03:00,22.9,16.0,29.41,ENE,67,10.3,37.5,74,0.00,,,0.17,Rainwise IP-100,2013-02-17 20:03:00,
2013-02-17 15:08:00,22.9,16.0,29.42,ESE,112,26.3,32.2,73,0.00,,,0.17,Rainwise IP-100,2013-02-17 20:08:00,
2013-02-17 15:13:00,22.9,16.0,29.42,ESE,112,14.2,33.1,72,0.00,,,0.17,Rainwise IP-100,2013-02-17 20:13:00,
2013-02-17 15:18:00,22.9,16.0,29.41,ESE,112,12.6,28.2,71,0.00,,,0.17,Rainwise IP-100,2013-02-17 20:18:00,
2013-02-17 15:23:00,22.9,14.0,29.43,East,90,5.4,32.2,70,0.00,,,0.17,Rainwise IP-100,2013-02-17 20:23:00,
2013-02-17 15:28:00,22.9,14.0,29.42,ESE,112,15.4,32.9,70,0.00,,,0.17,Rainwise IP-100,2013-02-17 20:28:00,
2013-02-17 15:33:00,23.0,14.0,29.43,ENE,67,4.7,28.7,69,0.00,,,0.17,Rainwise IP-100,2013-02-17 20:33:00,
2013-02-17 15:38:00,23.1,14.0,29.42,ESE,112,22.2,30.1,69,0.00,,,0.17,Rainwise IP-100,2013-02-17 20:38:00,
2013-02-17 15:43:00,23.2,14.0,29.43,East,90,19.4,24.9,68,0.00,,,0.17,Rainwise IP-100,2013-02-17 20:43:00,
2013-02-17 15:48:00,23.4,14.0,29.44,SE,135,13.1,34.0,67,0.00,,,0.17,Rainwise IP-100,2013-02-17 20:48:00,
2013-02-17 15:53:00,23.4,14.0,29.44,ESE,112,5.6,33.8,65,0.00,,,0.17,Rainwise IP-100,2013-02-17 20:53:00,
2013-02-17 15:58:00,23.4,14.0,29.44,ESE,112,18.7,33.6,65,0.00,,,0.17,Rainwise IP-100,2013-02-17 20:58:00,
2013-02-17 16:03:00,23.5,14.0,29.44,ESE,112,19.6,36.4,64,0.00,,,0.17,Rainwise IP-100,2013-02-17 21:03:00,
2013-02-17 16:08:00,23.6,14.0,29.43,SSE,157,20.1,24.0,63,0.00,,,0.17,Rainwise IP-100,2013-02-17 21:08:00,
2013-02-17 16:13:00,23.6,14.0,29.46,ESE,112,7.2,31.0,63,0.18,,,0.20,Rainwise IP-100,2013-02-17 21:13:00,
2013-02-17 16:18:00,23.6,14.0,29.46,ESE,112,18.9,23.8,62,0.18,,,0.20,Rainwise IP-100,2013-02-17 21:18:00,
2013-02-17 16:23:00,23.7,14.0,29.44,ESE,112,23.1,28.0,62,0.00,,,0.20,Rainwise IP-100,2013-02-17 21:23:00,
2013-02-17 16:28:00,23.8,14.0,29.45,ESE,112,19.4,29.4,62,0.00,,,0.20,Rainwise IP-100,2013-02-17 21:28:00,
2013-02-17 16:33:00,23.9,14.0,29.47,ESE,112,11.2,27.7,61,0.00,,,0.20,Rainwise IP-100,2013-02-17 21:33:00,
2013-02-17 16:38:00,24.0,14.0,29.46,SE,135,9.1,29.1,60,0.00,,,0.20,Rainwise IP-100,2013-02-17 21:38:00,
2013-02-17 16:43:00,24.1,14.0,29.47,South,180,9.8,39.4,59,0.00,,,0.20,Rainwise IP-100,2013-02-17 21:43:00,
2013-02-17 16:48:00,24.2,14.0,29.48,SE,135,4.4,32.9,58,0.00,,,0.20,Rainwise IP-100,2013-02-17 21:48:00,
2013-02-17 16:53:00,24.4,14.0,29.48,ESE,112,6.5,21.7,58,0.00,,,0.20,Rainwise IP-100,2013-02-17 21:53:00,
2013-02-17 16:58:00,24.4,11.0,29.47,ESE,112,19.6,36.6,57,0.00,,,0.20,Rainwise IP-100,2013-02-17 21:58:00,
2013-02-17 17:03:00,24.5,14.0,29.49,ENE,67,8.4,25.9,56,0.00,,,0.20,Rainwise IP-100,2013-02-17 22:03:00,
2013-02-17 17:08:00,24.6,14.0,29.48,SE,135,10.7,25.6,56,0.00,,,0.20,Rainwise IP-100,2013-02-17 22:08:00,
2013-02-17 17:13:00,24.8,14.0,29.49,ESE,112,14.9,34.3,55,0.00,,,0.20,Rainwise IP-100,2013-02-17 22:13:00,
2013-02-17 17:18:00,24.8,14.0,29.49,ESE,112,3.3,31.2,54,0.00,,,0.20,Rainwise IP-100,2013-02-17 22:18:00,
2013-02-17 17:23:00,24.9,11.0,29.50,SSW,202,8.6,26.1,53,0.00,,,0.20,Rainwise IP-100,2013-02-17 22:23:00,
2013-02-17 17:28:00,24.9,11.0,29.51,ESE,112,11.0,30.5,53,0.00,,,0.20,Rainwise IP-100,2013-02-17 22:28:00,
2013-02-17 17:33:00,25.0,11.0,29.50,NE,45,4.4,32.6,53,0.00,,,0.20,Rainwise IP-100,2013-02-17 22:33:00,
2013-02-17 17:38:00,25.1,11.0,29.50,ESE,112,20.1,30.1,52,0.00,,,0.20,Rainwise IP-100,2013-02-17 22:38:00,
2013-02-17 17:43:00,25.2,11.0,29.51,East,90,3.0,24.7,51,0.00,,,0.20,Rainwise IP-100,2013-02-17 22:43:00,
2013-02-17 17:48:00,25.2,11.0,29.52,ESE,112,10.7,27.7,51,0.00,,,0.20,Rainwise IP-100,2013-02-17 22:48:00,
2013-02-17 17:53:00,25.3,11.0,29.51,ESE,112,15.2,24.7,51,0.00,,,0.20,Rainwise IP-100,2013-02-17 22:53:00,
2013-02-17 17:58:00,25.4,11.0,29.52,ESE,112,6.8,21.2,50,0.00,,,0.20,Rainwise IP-100,2013-02-17 22:58:00,
2013-02-17 18:03:00,25.4,11.0,29.52,ESE,112,6.1,26.3,50,0.00,,,0.20,Rainwise IP-100,2013-02-17 23:03:00,
2013-02-17 18:08:00,25.5,11.0,29.52,ESE,112,11.7,22.2,50,0.00,,,0.20,Rainwise IP-100,2013-02-17 23:08:00,
2013-02-17 18:13:00,25.6,11.0,29.52,ESE,112,22.6,31.9,49,0.00,,,0.20,Rainwise IP-100,2013-02-17 23:13:00,
2013-02-17 18:18:00,25.6,11.0,29.53,ENE,67,20.5,28.2,47,0.00,,,0.20,Rainwise IP-100,2013-02-17 23:18:00,
2013-02-17 18:23:00,25.7,11.0,29.53,East,90,13.1,24.9,47,0.00,,,0.20,Rainwise IP-100,2013-02-17 23:23:00,
2013-02-17 18:28:00,25.8,11.0,29.53,East,90,7.9,26.3,47,0.00,,,0.20,Rainwise IP-100,2013-02-17 23:28:00,
2013-02-17 18:33:00,25.9,8.0,29.53,SE,135,16.6,31.2,46,0.00,,,0.20,Rainwise IP-100,2013-02-17 23:33:00,
2013-02-17 18:38:00,25.9,8.0,29.53,ESE,112,7.2,25.2,46,0.00,,,0.20,Rainwise IP-100,2013-02-17 23:38:00,
2013-02-17 18:43:00,25.9,8.0,29.54,SE,135,13.1,26.8,46,0.00,,,0.20,Rainwise IP-100,2013-02-17 23:43:00,
2013-02-17 18:48:00,25.9,8.0,29.53,SSE,157,10.3,27.0,46,0.00,,,0.20,Rainwise IP-100,2013-02-17 23:48:00,
2013-02-17 18:53:00,25.9,8.0,29.54,SSE,157,4.0,24.2,45,0.00,,,0.20,Rainwise IP-100,2013-02-17 23:53:00,
2013-02-17 18:58:00,25.9,8.0,29.53,ESE,112,17.3,29.8,45,0.00,,,0.20,Rainwise IP-100,2013-02-17 23:58:00,
2013-02-17 19:03:00,25.9,8.0,29.54,ESE,112,8.2,36.8,44,0.00,,,0.20,Rainwise IP-100,2013-02-18 00:03:00,
2013-02-17 19:08:00,26.0,8.0,29.55,SSE,157,9.3,25.6,43,0.00,,,0.20,Rainwise IP-100,2013-02-18 00:08:00,
2013-02-17 19:13:00,26.0,8.0,29.53,ESE,112,22.9,28.9,43,0.00,,,0.20,Rainwise IP-100,2013-02-18 00:13:00,
2013-02-17 19:18:00,26.0,8.0,29.55,ESE,112,17.3,35.2,43,0.00,,,0.20,Rainwise IP-100,2013-02-18 00:18:00,
2013-02-17 19:23:00,26.0,8.0,29.55,ESE,112,10.7,34.3,43,0.00,,,0.20,Rainwise IP-100,2013-02-18 00:23:00,
2013-02-17 19:28:00,26.1,8.0,29.54,ESE,112,24.2,31.2,42,0.00,,,0.20,Rainwise IP-100,2013-02-18 00:28:00,
2013-02-17 19:33:00,26.0,8.0,29.55,ESE,112,14.2,26.1,42,0.00,,,0.20,Rainwise IP-100,2013-02-18 00:33:00,
2013-02-17 19:38:00,25.9,8.0,29.55,ESE,112,3.5,33.1,42,0.00,,,0.20,Rainwise IP-100,2013-02-18 00:38:00,
2013-02-17 19:43:00,25.9,8.0,29.56,ESE,112,7.7,23.1,42,0.00,,,0.20,Rainwise IP-100,2013-02-18 00:43:00,
2013-02-17 19:48:00,25.9,8.0,29.55,ESE,112,23.1,29.8,42,0.00,,,0.20,Rainwise IP-100,2013-02-18 00:48:00,
2013-02-17 19:53:00,25.8,8.0,29.56,ESE,112,12.4,25.9,43,0.00,,,0.20,Rainwise IP-100,2013-02-18 00:53:00,
2013-02-17 19:58:00,25.5,8.0,29.57,East,90,11.9,26.8,44,0.00,,,0.20,Rainwise IP-100,2013-02-18 00:58:00,
2013-02-17 20:03:00,25.1,8.0,29.57,SSE,157,2.6,17.0,46,0.00,,,0.20,Rainwise IP-100,2013-02-18 01:03:00,
2013-02-17 20:08:00,25.0,11.0,29.57,ESE,112,15.6,20.1,47,0.00,,,0.20,Rainwise IP-100,2013-02-18 01:08:00,
2013-02-17 20:13:00,24.8,11.0,29.58,ESE,112,15.2,21.7,47,0.00,,,0.20,Rainwise IP-100,2013-02-18 01:13:00,
2013-02-17 20:18:00,24.6,11.0,29.57,SE,135,5.6,32.6,47,0.00,,,0.20,Rainwise IP-100,2013-02-18 01:18:00,
2013-02-17 20:23:00,24.5,11.0,29.57,ESE,112,15.6,32.6,47,0.00,,,0.20,Rainwise IP-100,2013-02-18 01:23:00,
2013-02-17 20:28:00,24.3,8.0,29.58,ESE,112,0.0,23.1,47,0.00,,,0.20,Rainwise IP-100,2013-02-18 01:28:00,
2013-02-17 20:33:00,24.2,8.0,29.58,ESE,112,8.9,27.0,48,0.00,,,0.20,Rainwise IP-100,2013-02-18 01:33:00,
2013-02-17 20:38:00,24.0,8.0,29.58,SE,135,6.3,19.4,48,0.00,,,0.20,Rainwise IP-100,2013-02-18 01:38:00,
2013-02-17 20:43:00,23.8,8.0,29.57,ESE,112,17.7,20.5,48,0.00,,,0.20,Rainwise IP-100,2013-02-18 01:43:00,
2013-02-17 20:48:00,23.7,8.0,29.58,East,90,9.1,25.4,48,0.00,,,0.20,Rainwise IP-100,2013-02-18 01:48:00,
2013-02-17 20:53:00,23.5,8.0,29.57,ENE,67,21.9,23.6,48,0.00,,,0.20,Rainwise IP-100,2013-02-18 01:53:00,
2013-02-17 20:58:00,23.3,8.0,29.58,ESE,112,23.6,28.7,48,0.00,,,0.20,Rainwise IP-100,2013-02-18 01:58:00,
2013-02-17 21:03:00,23.1,8.0,29.58,ESE,112,4.9,28.0,48,0.00,,,0.20,Rainwise IP-100,2013-02-18 02:03:00,
2013-02-17 21:08:00,23.0,8.0,29.60,ENE,67,9.8,24.9,49,0.00,,,0.20,Rainwise IP-100,2013-02-18 02:08:00,
2013-02-17 21:13:00,22.7,8.0,29.60,ESE,112,15.2,25.6,49,0.00,,,0.20,Rainwise IP-100,2013-02-18 02:13:00,
2013-02-17 21:18:00,22.5,8.0,29.61,ESE,112,11.9,28.4,50,0.00,,,0.20,Rainwise IP-100,2013-02-18 02:18:00,
2013-02-17 21:23:00,22.4,8.0,29.61,ESE,112,11.2,22.9,50,0.00,,,0.20,Rainwise IP-100,2013-02-18 02:23:00,
2013-02-17 21:28:00,22.2,8.0,29.60,ESE,112,16.3,31.0,50,0.00,,,0.20,Rainwise IP-100,2013-02-18 02:28:00,
2013-02-17 21:33:00,22.1,8.0,29.61,ESE,112,16.6,28.4,50,0.00,,,0.20,Rainwise IP-100,2013-02-18 02:33:00,
2013-02-17 21:38:00,22.0,8.0,29.62,ESE,112,9.1,25.6,50,0.00,,,0.20,Rainwise IP-100,2013-02-18 02:38:00,
2013-02-17 21:43:00,21.9,8.0,29.62,ESE,112,14.7,22.9,50,0.00,,,0.20,Rainwise IP-100,2013-02-18 02:43:00,
2013-02-17 21:48:00,21.8,8.0,29.62,East,90,10.0,24.2,51,0.00,,,0.20,Rainwise IP-100,2013-02-18 02:48:00,
2013-02-17 21:53:00,21.6,8.0,29.63,SSE,157,3.7,24.5,51,0.00,,,0.20,Rainwise IP-100,2013-02-18 02:53:00,
2013-02-17 21:58:00,21.5,8.0,29.63,ESE,112,2.1,26.1,51,0.00,,,0.20,Rainwise IP-100,2013-02-18 02:58:00,
2013-02-17 22:03:00,21.4,8.0,29.63,SE,135,3.5,25.2,51,0.00,,,0.20,Rainwise IP-100,2013-02-18 03:03:00,
2013-02-17 22:08:00,21.3,8.0,29.63,SSE,157,9.1,22.6,52,0.00,,,0.20,Rainwise IP-100,2013-02-18 03:08:00,
2013-02-17 22:13:00,21.1,8.0,29.62,ESE,112,16.8,32.2,52,0.00,,,0.20,Rainwise IP-100,2013-02-18 03:13:00,
2013-02-17 22:18:00,21.0,8.0,29.63,East,90,3.3,24.0,52,0.00,,,0.20,Rainwise IP-100,2013-02-18 03:18:00,
2013-02-17 22:23:00,21.0,8.0,29.63,ESE,112,17.0,24.7,52,0.00,,,0.20,Rainwise IP-100,2013-02-18 03:23:00,
2013-02-17 22:28:00,20.8,8.0,29.64,ESE,112,13.3,21.7,52,0.00,,,0.20,Rainwise IP-100,2013-02-18 03:28:00,
2013-02-17 22:33:00,20.7,8.0,29.64,SE,135,7.2,21.0,52,0.00,,,0.20,Rainwise IP-100,2013-02-18 03:33:00,
2013-02-17 22:38:00,20.6,8.0,29.65,ENE,67,3.0,22.4,52,0.00,,,0.20,Rainwise IP-100,2013-02-18 03:38:00,
2013-02-17 22:43:00,20.5,8.0,29.65,SSE,157,4.7,26.3,52,0.00,,,0.20,Rainwise IP-100,2013-02-18 03:43:00,
2013-02-17 22:48:00,20.4,8.0,29.65,East,90,12.6,28.2,52,0.00,,,0.20,Rainwise IP-100,2013-02-18 03:48:00,
2013-02-17 22:53:00,20.3,8.0,29.65,South,180,4.4,29.1,52,0.00,,,0.20,Rainwise IP-100,2013-02-18 03:53:00,
2013-02-17 22:58:00,20.2,8.0,29.65,ESE,112,12.4,30.1,52,0.00,,,0.20,Rainwise IP-100,2013-02-18 03:58:00,
2013-02-17 23:03:00,20.2,8.0,29.66,SSW,202,6.1,18.7,53,0.00,,,0.20,Rainwise IP-100,2013-02-18 04:03:00,
2013-02-17 23:08:00,20.1,8.0,29.65,SE,135,18.7,19.8,53,0.00,,,0.20,Rainwise IP-100,2013-02-18 04:08:00,
2013-02-17 23:13:00,20.0,8.0,29.66,ESE,112,11.7,22.4,53,0.00,,,0.20,Rainwise IP-100,2013-02-18 04:13:00,
2013-02-17 23:18:00,19.9,8.0,29.66,ESE,112,9.1,21.5,53,0.00,,,0.20,Rainwise IP-100,2013-02-18 04:18:00,
2013-02-17 23:23:00,19.7,8.0,29.66,ESE,112,7.5,23.6,53,0.00,,,0.20,Rainwise IP-100,2013-02-18 04:23:00,
2013-02-17 23:28:00,19.7,8.0,29.66,East,90,15.2,27.7,53,0.00,,,0.20,Rainwise IP-100,2013-02-18 04:28:00,
2013-02-17 23:33:00,19.6,8.0,29.67,ESE,112,9.6,22.2,53,0.00,,,0.20,Rainwise IP-100,2013-02-18 04:33:00,
2013-02-17 23:38:00,19.5,8.0,29.67,ESE,112,5.6,26.3,54,0.00,,,0.20,Rainwise IP-100,2013-02-18 04:38:00,
2013-02-17 23:43:00,19.5,8.0,29.67,NNE,22,4.7,22.6,54,0.00,,,0.20,Rainwise IP-100,2013-02-18 04:43:00,
2013-02-17 23:48:00,19.4,8.0,29.67,ESE,112,10.5,21.5,54,0.00,,,0.20,Rainwise IP-100,2013-02-18 04:48:00,
2013-02-17 23:53:00,19.3,8.0,29.67,East,90,13.8,26.3,54,0.00,,,0.20,Rainwise IP-100,2013-02-18 04:53:00,
2013-02-17 23:58:00,19.3,8.0,29.68,SSW,202,2.1,23.6,53,0.00,,,0.20,Rainwise IP-100,2013-02-18 04:58:00,